[[{"header":{"parameterUnit":"m.s-1","parameterCategory":1,"la1":30.2991,"la2":30.254,"lo1":-89.0895,"lo2":-89.0444,"dy":0.0017,"dx":0.0017,"nx":28,"ny":28,"refTime":"2024-12-10T09:00:00:Z","depth":0,"parameterNumber":2,"parameterNumberName":"U-component_of_WINDS"},"data":[0,0,0,0,0,0,0,0,0,0,0,0,0,0,0,0,0,0,0,0,0,0,0,0,0,0,0,0,0,0,0,0,0,0,0,0,0,0,0,0,0,0,0,0,0,0,0,0,0,0,0,0,0,0,0,0,0,0,4.4722,4.4722,0,4.4734,4.4734,4.4735,4.4669,4.4667,4.4665,4.4663,4.4676,4.4678,4.468,0,0,0,0,0,0,0,0,0,0,0,0,0,4.4644,4.4645,4.4722,4.4722,4.4722,4.4734,4.4734,4.4735,4.4669,4.4667,4.4665,4.4662,4.4675,4.4678,4.4681,0,0,0,0,0,0,0,0,0,0,0,0,0,4.4669,4.4646,4.4722,4.4691,4.4688,4.4734,4.4734,4.4735,4.467,4.4667,4.4664,4.4661,4.4675,4.4678,4.4681,4.4757,0,0,4.4691,4.4692,0,0,0,0,0,0,0,0,4.4668,4.4672,4.4695,4.4693,4.469,4.4697,4.4711,4.4742,4.467,4.4677,4.4663,4.466,4.4685,4.4688,4.4696,4.4758,4.4758,4.4691,4.4693,4.4694,4.4695,0,0,0,0,0,0,0,4.4666,4.4671,4.4727,4.4696,4.4693,4.4677,4.4678,4.4717,4.4697,4.4676,4.4671,4.4674,4.4684,4.4693,4.4696,4.4758,4.4691,4.4694,4.4695,4.4697,4.4887,4.489,0,0,0,0,0,0,4.4668,4.467,4.4726,4.4727,4.4672,4.4681,4.4681,4.4698,4.4696,4.4693,4.4676,4.467,4.4689,4.4692,4.4696,4.4787,4.4694,4.4697,4.4699,4.4883,4.4887,4.4891,0,0,0,0,0,0,4.4667,4.4674,4.4726,4.4697,4.4703,4.4685,4.4704,4.4699,4.4709,4.4696,4.4692,4.4689,4.4687,4.4692,4.4743,4.4787,4.4698,4.4701,4.488,4.4885,4.4889,4.4969,0,0,0,0,0,0,4.4665,4.4674,4.4702,4.4698,4.4705,4.4772,4.4707,4.4702,4.4715,4.4708,4.4708,4.4705,4.4685,4.4739,4.4746,4.4789,4.4704,4.4876,4.4882,4.4888,4.4962,4.4975,4.4987,0,0,0,0,0,4.4662,4.4723,4.4703,4.471,4.4739,4.4774,4.4778,4.4754,4.4718,4.4747,4.4739,4.4705,4.4781,4.4745,4.4752,4.4797,4.4873,4.488,4.4887,4.4956,4.4973,4.4987,0,0,0,0,0,0,4.4731,4.4722,4.47,4.4761,4.4769,4.4763,4.4798,4.4771,4.4789,4.4782,4.4751,4.4752,4.481,4.4808,4.4768,4.4873,4.4821,4.483,4.4871,4.4886,4.4899,4.4898,4.4706,0,0,0,0,0,4.4753,4.4782,4.4773,4.4828,4.4833,4.4816,4.483,4.4811,4.4818,4.4821,4.4817,4.4825,4.4851,4.4869,4.4892,4.4962,4.4962,4.4997,4.5009,4.502,4.5028,4.5068,4.5084,4.4914,4.4914,4.4914,0,0,4.4799,4.4798,4.4818,4.4842,4.4846,4.4878,4.4819,4.4854,4.4878,4.4826,4.4875,4.4873,4.488,4.4943,4.497,4.4943,4.5075,4.5029,4.5037,4.504,4.5077,4.5093,4.5107,4.4919,4.4918,4.4917,0,0,4.49,4.4901,4.4948,4.4954,4.4962,4.495,4.4962,4.4961,4.4957,4.5006,4.4969,4.4997,4.5042,4.505,4.5059,4.5167,4.5137,4.5176,4.5241,4.528,4.5293,4.5305,4.5345,4.536,4.5184,4.5184,4.5184,0,4.4956,4.5002,4.4976,4.5015,4.5028,4.4984,4.5032,4.5039,4.5054,4.5064,4.5035,4.5092,4.5094,4.5158,4.5185,4.5194,4.5207,4.5175,4.5293,4.5305,4.5316,4.5353,4.5368,4.5189,4.5188,4.5188,4.5187,0,4.5072,4.5105,4.5142,4.5159,4.5175,4.5219,4.5201,4.5221,4.5202,4.5194,4.5246,4.5247,4.5271,4.5285,4.5265,4.5348,4.5332,4.5299,4.5246,4.5337,4.5372,4.5386,4.5196,4.5194,4.5192,4.5191,0,0,4.5213,4.5217,4.5231,4.524,4.5246,4.5271,4.5314,4.5338,4.5357,4.537,4.5406,4.5447,4.5417,4.5428,4.541,4.5445,4.5533,4.5407,4.5407,4.5432,4.5626,4.5651,4.5668,4.5513,4.5516,4.5518,4.5625,0,4.5313,4.5385,4.5365,4.5439,4.547,4.5431,4.5468,4.5477,4.5472,4.5499,4.5493,4.5523,4.5481,4.5488,4.552,4.5515,4.5571,4.5507,4.5548,4.5549,4.5547,4.5686,4.5712,4.5813,4.5639,4.5641,4.5643,0,4.5437,4.5456,4.5533,4.5538,4.555,4.5584,4.5606,4.5632,4.5642,4.5636,4.5651,4.5627,4.5671,4.5619,4.568,4.5637,4.5653,4.5653,4.5657,4.5659,4.5601,4.5693,4.5844,4.586,4.5664,4.5662,4.5661,0,4.5535,4.5579,4.5632,4.564,4.5646,4.5671,4.5675,4.5683,4.5699,4.5719,4.573,4.5754,4.5768,4.5788,4.5772,4.5735,4.5837,4.5782,4.5834,4.5834,4.5856,4.5855,4.6013,4.5866,4.5866,4.5866,4.5865,0,4.5648,4.5697,4.5676,4.5708,4.5763,4.574,4.5795,4.5794,4.5802,4.5835,4.5802,4.5834,4.581,4.584,4.5828,4.5882,4.5888,4.5885,4.5882,4.5888,4.5889,4.5898,4.5891,4.587,4.5869,4.5868,4.5867,0,4.5765,4.5753,4.5808,4.581,4.5812,4.5852,4.5854,4.5885,4.5879,4.5921,4.5929,4.5919,4.5953,4.594,4.5975,4.5967,4.6037,4.6023,4.6033,4.603,4.6082,4.6078,4.6252,4.6274,4.6113,4.6114,4.6115,0,4.5838,4.5875,4.5882,4.5902,4.5908,4.594,4.5958,4.5938,4.5958,4.5975,4.6004,4.6035,4.6059,4.6116,4.6112,4.614,4.6128,4.6187,4.6131,4.6138,4.613,4.6128,4.6133,4.6198,4.6199,4.6201,4.6202,0,4.5969,4.5962,4.5989,4.6015,4.6037,4.6056,4.6072,4.609,4.6071,4.6096,4.6131,4.6149,4.6187,4.6219,4.6245,4.625,4.6224,4.622,4.6234,4.6241,4.6246,4.6245,4.6064,4.6216,4.6214,4.6213,4.6213,4.6212,4.6067,4.6099,4.611,4.6142,4.6153,4.6169,4.6199,4.6198,4.6226,4.6256,4.6242,4.6284,4.6296,4.6328,4.6337,4.6369,4.6346,4.6366,4.6371,4.6376,4.6383,4.6241,4.6374,4.6373,4.6373,4.6373,4.6372,0,4.6198,4.6204,4.6233,4.6258,4.6284,4.6258,4.6275,4.6299,4.6335,4.6349,4.6374,4.6416,4.6448,4.6448,4.6478,4.6505,4.6494,4.6513,4.6511,4.6513,4.6401,4.6387,4.6522,4.6522,4.6522,4.6522,4.6522,4.6522,4.6269,4.6323,4.6318,4.6378,4.6383,4.6424,4.6436,4.6453,4.6464,4.6512,4.6539,4.6539,4.6548,4.6579,4.6608,4.6608,4.6621,4.6645,4.6641,4.6536,4.6521,4.6507,4.6493,4.6648,4.6648,4.675,4.6751,4.6751]},{"header":{"parameterUnit":"m.s-1","parameterCategory":1,"la1":30.2991,"la2":30.254,"lo1":-89.0895,"lo2":-89.0444,"dy":0.0017,"dx":0.0017,"nx":28,"ny":28,"refTime":"2024-12-10T09:00:00:Z","depth":0,"parameterNumber":3,"parameterNumberName":"V-component_of_WINDS"},"data":[0,0,0,0,0,0,0,0,0,0,0,0,0,0,0,0,0,0,0,0,0,0,0,0,0,0,0,0,0,0,0,0,0,0,0,0,0,0,0,0,0,0,0,0,0,0,0,0,0,0,0,0,0,0,0,0,0,0,-7.4903,-7.4904,0,-7.5031,-7.5033,-7.5034,-7.4985,-7.4982,-7.4979,-7.4976,-7.5106,-7.5112,-7.5118,0,0,0,0,0,0,0,0,0,0,0,0,0,-7.4614,-7.4619,-7.4903,-7.4904,-7.4906,-7.5031,-7.5033,-7.5035,-7.4985,-7.4982,-7.4978,-7.4975,-7.5104,-7.5112,-7.5119,0,0,0,0,0,0,0,0,0,0,0,0,0,-7.4741,-7.4621,-7.4902,-7.4896,-7.4897,-7.5031,-7.5033,-7.5035,-7.4986,-7.4982,-7.4977,-7.4973,-7.5102,-7.5111,-7.512,-7.5267,0,0,-7.5149,-7.5153,0,0,0,0,0,0,0,0,-7.4733,-7.4751,-7.4896,-7.4897,-7.4898,-7.4988,-7.4979,-7.5113,-7.4987,-7.4952,-7.4976,-7.4971,-7.507,-7.5082,-7.5116,-7.5273,-7.5279,-7.5149,-7.5155,-7.5159,-7.5162,0,0,0,0,0,0,0,-7.4725,-7.4745,-7.4953,-7.4898,-7.4899,-7.4887,-7.49,-7.5004,-7.5035,-7.4955,-7.4952,-7.4968,-7.507,-7.5107,-7.5118,-7.528,-7.5149,-7.5157,-7.5163,-7.5167,-7.5566,-7.5571,0,0,0,0,0,0,-7.4716,-7.4738,-7.4949,-7.4957,-7.4803,-7.4896,-7.4911,-7.4963,-7.5033,-7.504,-7.4971,-7.4965,-7.5093,-7.5108,-7.5123,-7.53,-7.5159,-7.5168,-7.5173,-7.5561,-7.5568,-7.5573,0,0,0,0,0,0,-7.471,-7.4735,-7.4944,-7.4847,-7.4873,-7.4906,-7.4965,-7.4968,-7.5005,-7.5046,-7.5051,-7.5003,-7.509,-7.511,-7.5232,-7.5304,-7.5172,-7.5181,-7.5556,-7.5563,-7.557,-7.5656,0,0,0,0,0,0,-7.4701,-7.4733,-7.4789,-7.4849,-7.4878,-7.5052,-7.497,-7.4974,-7.5021,-7.5014,-7.5077,-7.5083,-7.5088,-7.5218,-7.5241,-7.5315,-7.5188,-7.5549,-7.5559,-7.5568,-7.5647,-7.5666,-7.5682,0,0,0,0,0,-7.4691,-7.4807,-7.4792,-7.4818,-7.4949,-7.5056,-7.5073,-7.5076,-7.5027,-7.5084,-7.5111,-7.5081,-7.5293,-7.5231,-7.5257,-7.5334,-7.5545,-7.5556,-7.5567,-7.5639,-7.5662,-7.5681,0,0,0,0,0,0,-7.4754,-7.4815,-7.4799,-7.4937,-7.4992,-7.5047,-7.5119,-7.51,-7.5169,-7.5159,-7.516,-7.5175,-7.5302,-7.533,-7.526,-7.5481,-7.5411,-7.5428,-7.5457,-7.5479,-7.5496,-7.5487,-7.5196,0,0,0,0,0,-7.4784,-7.4866,-7.4915,-7.5033,-7.5061,-7.5086,-7.5132,-7.513,-7.5187,-7.5209,-7.5244,-7.53,-7.5379,-7.5431,-7.5505,-7.5651,-7.5665,-7.5717,-7.5734,-7.5748,-7.5763,-7.5843,-7.5868,-7.561,-7.561,-7.561,0,0,-7.4847,-7.4891,-7.4942,-7.5046,-7.5088,-7.5173,-7.5105,-7.5197,-7.526,-7.5223,-7.5341,-7.5369,-7.5431,-7.5566,-7.5627,-7.5594,-7.5837,-7.5763,-7.5774,-7.5781,-7.5857,-7.5882,-7.5904,-7.5618,-7.5616,-7.5615,0,0,-7.5005,-7.5046,-7.5149,-7.5193,-7.5258,-7.5274,-7.5299,-7.5358,-7.5376,-7.5494,-7.5469,-7.5544,-7.5679,-7.5725,-7.5766,-7.5944,-7.592,-7.5968,-7.6059,-7.6137,-7.6157,-7.6175,-7.624,-7.6263,-7.5983,-7.5983,-7.5983,0,-7.5075,-7.5202,-7.5204,-7.53,-7.5347,-7.5318,-7.5423,-7.5466,-7.5552,-7.5585,-7.5546,-7.5718,-7.5757,-7.5903,-7.5947,-7.5981,-7.601,-7.5961,-7.6154,-7.6172,-7.6189,-7.6251,-7.6275,-7.5988,-7.5988,-7.5987,-7.5987,0,-7.5285,-7.5374,-7.5449,-7.5534,-7.559,-7.569,-7.5708,-7.5764,-7.5758,-7.5778,-7.59,-7.5947,-7.6032,-7.6066,-7.6061,-7.6213,-7.619,-7.6153,-7.6083,-7.6219,-7.6277,-7.63,-7.5996,-7.5994,-7.5993,-7.5991,0,0,-7.5484,-7.5571,-7.5599,-7.5638,-7.5709,-7.5777,-7.5876,-7.596,-7.6009,-7.6069,-7.6152,-7.6269,-7.6236,-7.6283,-7.6283,-7.6352,-7.6491,-7.6307,-7.6308,-7.634,-7.6662,-7.6689,-7.6716,-7.6476,-7.648,-7.6484,-7.6657,0,-7.5648,-7.5822,-7.5829,-7.5987,-7.607,-7.6045,-7.6131,-7.6184,-7.6206,-7.628,-7.6304,-7.6387,-7.6337,-7.6365,-7.6432,-7.646,-7.6556,-7.6447,-7.6553,-7.6557,-7.6539,-7.6746,-7.6775,-7.6936,-7.6679,-7.6683,-7.6686,0,-7.5862,-7.5931,-7.6099,-7.6159,-7.6194,-7.6272,-7.635,-7.642,-7.648,-7.6491,-7.6545,-7.6535,-7.6637,-7.6564,-7.6705,-7.6631,-7.6675,-7.6695,-7.6702,-7.6711,-7.663,-7.6762,-7.6988,-7.7012,-7.6721,-7.6719,-7.6716,0,-7.5992,-7.6126,-7.6244,-7.6278,-7.6352,-7.6407,-7.644,-7.6496,-7.6546,-7.6615,-7.6648,-7.6727,-7.677,-7.6832,-7.6844,-7.679,-7.6985,-7.6913,-7.6997,-7.6997,-7.7039,-7.7036,-7.7275,-7.7067,-7.7067,-7.7066,-7.7066,0,-7.6174,-7.6278,-7.6304,-7.6376,-7.6492,-7.6499,-7.6613,-7.6642,-7.6693,-7.6771,-7.6754,-7.6827,-7.6839,-7.6915,-7.6925,-7.7041,-7.706,-7.7072,-7.7074,-7.7074,-7.7073,-7.7102,-7.7092,-7.7073,-7.7071,-7.707,-7.7069,0,-7.6338,-7.636,-7.6487,-7.6547,-7.6564,-7.6647,-7.6698,-7.6768,-7.6789,-7.6888,-7.6912,-7.6944,-7.7034,-7.7052,-7.7157,-7.7164,-7.7302,-7.7292,-7.7282,-7.7281,-7.7364,-7.7356,-7.7631,-7.7668,-7.7436,-7.7438,-7.744,0,-7.6453,-7.6532,-7.6601,-7.6653,-7.6689,-7.6772,-7.6824,-7.6834,-7.6889,-7.6965,-7.7026,-7.7113,-7.7184,-7.7328,-7.7361,-7.7442,-7.7434,-7.7525,-7.7446,-7.7444,-7.7436,-7.7431,-7.744,-7.754,-7.7542,-7.7544,-7.7546,0,-7.6655,-7.6662,-7.6738,-7.6819,-7.6882,-7.6945,-7.7006,-7.7049,-7.7067,-7.713,-7.7222,-7.7277,-7.7386,-7.7473,-7.7555,-7.7589,-7.7571,-7.7571,-7.7595,-7.7596,-7.7587,-7.7593,-7.7323,-7.7564,-7.7562,-7.7561,-7.756,-7.7559,-7.6798,-7.6868,-7.6928,-7.7013,-7.7061,-7.7118,-7.7187,-7.7218,-7.7295,-7.7384,-7.7386,-7.7486,-7.7546,-7.7654,-7.7693,-7.7772,-7.7743,-7.7778,-7.7786,-7.7795,-7.7803,-7.7575,-7.7787,-7.7786,-7.7786,-7.7785,-7.7785,0,-7.6999,-7.7037,-7.7116,-7.7202,-7.727,-7.7248,-7.7315,-7.7373,-7.7462,-7.7519,-7.759,-7.7696,-7.7782,-7.7822,-7.7907,-7.7962,-7.7956,-7.7984,-7.798,-7.7988,-7.7823,-7.7794,-7.7988,-7.7988,-7.7988,-7.7987,-7.7987,-7.7987,-7.7112,-7.723,-7.7245,-7.7386,-7.7423,-7.7522,-7.7562,-7.7615,-7.7661,-7.7781,-7.7853,-7.7879,-7.793,-7.8018,-7.8096,-7.8106,-7.8138,-7.817,-7.8176,-7.802,-7.8,-7.798,-7.7953,-7.8177,-7.8177,-7.8335,-7.8336,-7.8337]}]]